Perry, IA

2:06 AM CDT on March 24, 2017 (GMT -0500)
Perry Municipal

Weather History for KPRO - October, 2013

Change the Weather History Date:

Tuesday, October 15, 2013

  Actual Average Record
Temperature  
Mean Temperature 52 °F -  
Max Temperature 59 °F 65 °F 88 °F (1953)
Min Temperature 46 °F 39 °F 24 °F (1952)
Degree Days  
Heating Degree Days 12    
Growing Degree Days 2 (Base 50)    
Moisture  
Dew Point 43 °F    
Average Humidity 76    
Maximum Humidity 91    
Minimum Humidity 60    
Precipitation  
Precipitation 0.10 in - - ()
Sea Level Pressure  
Sea Level Pressure 29.86 in    
Wind  
Wind Speed 13 mph (WSW)    
Max Wind Speed 25 mph    
Max Gust Speed 33 mph    
Visibility 10 miles    
Events Rain    
Averages and records for this station are not official NWS values.
T = Trace of Precipitation, MM = Missing Value Source: NWS Daily Summary

Daily Weather History Graph

Daily Weather History Graph

Search for Another Location

Airport or City:

Trip Planner

Search our weather history database for the weather conditions in past years. The results will help you decide how hot, cold, wet, or windy it might be!

Date:

Astronomy

Oct. 15, 2013 Rise Set
Actual Time 7:29 AM CDT 6:34 PM CDT
Civil Twilight 7:01 AM CDT 7:02 PM CDT
Nautical Twilight 6:28 AM CDT 7:35 PM CDT
Astronomical Twilight 5:56 AM CDT 8:07 PM CDT
Moon 4:42 PM CDT (10/15) 3:49 AM CDT (10/15)
Length of Visible Light 12h 01m
Length of Day
11h 05m
Waxing Gibbous, 88% of the Moon is Illuminated
Oct 15
Waxing Gibbous
Oct 18
Full
Oct 26
Last Quarter
Nov 3
New
Nov 9
First Quarter

Hourly Weather History & Observations

Time (CDT) Temp. Windchill Dew Point Humidity Pressure Visibility Wind Dir Wind Speed Gust Speed Precip Events Conditions
12:15 AM 53.4 °F - 50.0 °F 88% 29.84 in 5.0 mi SSE 8.1 mph - 0.03 in Rain Rain
12:35 AM 53.6 °F - 50.4 °F 89% 29.84 in 4.0 mi SSE 4.6 mph - 0.07 in Rain Rain
12:55 AM 53.1 °F - 50.4 °F 91% 29.79 in 4.0 mi ESE 11.5 mph - 0.10 in Rain Light Rain
1:15 AM 53.8 °F - 51.1 °F 91% 29.79 in 7.0 mi SE 11.5 mph - N/A Rain Light Rain
1:35 AM 54.5 °F - 52.0 °F 91% 29.79 in 7.0 mi SE 6.9 mph - N/A   Overcast
1:55 AM 55.4 °F - 52.9 °F 91% 29.77 in 7.0 mi SE 6.9 mph - N/A   Overcast
2:15 AM 57.2 °F - 54.5 °F 91% 29.77 in 10.0 mi South 11.5 mph 16.1 mph N/A Rain Light Rain
2:35 AM 57.9 °F - 55.0 °F 90% 29.77 in 10.0 mi South 12.7 mph - N/A   Overcast
2:55 AM 58.5 °F - 55.4 °F 90% 29.77 in 10.0 mi South 16.1 mph 24.2 mph N/A Rain Light Rain
3:15 AM 59.0 °F - 55.6 °F 88% 29.76 in 10.0 mi SSW 10.4 mph - N/A   Overcast
3:35 AM 59.0 °F - 55.4 °F 88% 29.76 in 10.0 mi SSW 10.4 mph - N/A   Overcast
3:55 AM 57.9 °F - 53.1 °F 84% 29.77 in 10.0 mi SW 19.6 mph 25.3 mph N/A   Overcast
4:15 AM 55.2 °F - 50.0 °F 83% 29.77 in 10.0 mi SW 13.8 mph 20.7 mph N/A   Overcast
4:35 AM 53.6 °F - 48.4 °F 82% 29.79 in 10.0 mi WSW 15.0 mph 20.7 mph N/A   Mostly Cloudy
4:55 AM 52.0 °F - 46.4 °F 81% 29.80 in 10.0 mi WSW 10.4 mph 23.0 mph N/A   Scattered Clouds
5:15 AM 50.9 °F - 45.5 °F 82% 29.80 in 10.0 mi WSW 11.5 mph 19.6 mph N/A   Scattered Clouds
5:35 AM 50.9 °F - 45.5 °F 82% 29.80 in 10.0 mi WSW 12.7 mph 16.1 mph N/A   Overcast
5:55 AM 51.3 °F - 45.0 °F 79% 29.81 in 10.0 mi WSW 11.5 mph 18.4 mph N/A   Overcast
6:15 AM 50.9 °F - 44.8 °F 80% 29.81 in 10.0 mi WSW 10.4 mph - N/A   Overcast
6:35 AM 50.2 °F - 44.2 °F 80% 29.82 in 10.0 mi SW 9.2 mph 17.3 mph N/A   Overcast
6:55 AM 49.5 °F - 42.8 °F 78% 29.81 in 10.0 mi WSW 9.2 mph - N/A   Overcast
7:15 AM 48.4 °F - 42.8 °F 81% 29.82 in 10.0 mi SW 8.1 mph - N/A   Overcast
7:35 AM 48.9 °F - 42.8 °F 79% 29.82 in 10.0 mi WSW 11.5 mph - N/A   Overcast
7:55 AM 49.3 °F - 41.9 °F 76% 29.83 in 10.0 mi WSW 13.8 mph - N/A   Overcast
8:15 AM 49.1 °F - 41.0 °F 74% 29.84 in 10.0 mi West 16.1 mph 23.0 mph N/A   Overcast
8:35 AM 48.7 °F - 40.5 °F 73% 29.85 in 10.0 mi WSW 13.8 mph 19.6 mph N/A   Overcast
8:55 AM 48.6 °F - 40.1 °F 73% 29.85 in 10.0 mi WSW 15.0 mph 23.0 mph N/A   Overcast
9:15 AM 48.4 °F - 39.4 °F 71% 29.86 in 10.0 mi West 10.4 mph 21.9 mph N/A   Overcast
9:35 AM 48.2 °F - 39.2 °F 71% 29.86 in 10.0 mi West 15.0 mph 21.9 mph N/A   Overcast
9:55 AM 48.2 °F - 38.3 °F 69% 29.86 in 10.0 mi West 16.1 mph 23.0 mph N/A   Overcast
10:15 AM 48.4 °F - 38.5 °F 69% 29.86 in 10.0 mi West 13.8 mph 21.9 mph N/A   Overcast
10:35 AM 48.4 °F - 37.9 °F 67% 29.86 in 10.0 mi WSW 15.0 mph 20.7 mph N/A   Overcast
10:55 AM 49.3 °F - 38.3 °F 66% 29.86 in 10.0 mi West 15.0 mph 21.9 mph N/A   Overcast
11:15 AM 50.0 °F - 38.5 °F 65% 29.87 in 10.0 mi West 17.3 mph 26.5 mph N/A   Overcast
11:35 AM 50.0 °F - 38.3 °F 64% 29.87 in 10.0 mi WSW 13.8 mph 25.3 mph N/A   Overcast
11:55 AM 49.3 °F - 38.3 °F 66% 29.88 in 10.0 mi WSW 19.6 mph 26.5 mph N/A   Overcast
12:15 PM 50.0 °F - 38.5 °F 65% 29.87 in 10.0 mi West 20.7 mph 27.6 mph N/A   Overcast
12:35 PM 51.1 °F - 38.5 °F 62% 29.87 in 10.0 mi West 13.8 mph 24.2 mph N/A   Overcast
12:55 PM 50.9 °F - 38.7 °F 63% 29.87 in 10.0 mi West 21.9 mph 27.6 mph N/A   Overcast
1:15 PM 50.9 °F - 38.1 °F 62% 29.87 in 10.0 mi West 16.1 mph 25.3 mph N/A   Overcast
1:35 PM 51.6 °F - 38.3 °F 60% 29.87 in 10.0 mi West 20.7 mph 26.5 mph N/A   Overcast
1:55 PM 51.1 °F - 38.1 °F 61% 29.87 in 10.0 mi West 21.9 mph 28.8 mph N/A   Overcast
2:15 PM 51.8 °F - 38.3 °F 60% 29.86 in 10.0 mi WSW 20.7 mph 27.6 mph N/A   Overcast
2:35 PM 51.4 °F - 38.3 °F 61% 29.86 in 10.0 mi West 21.9 mph 31.1 mph N/A   Overcast
2:55 PM 51.8 °F - 38.7 °F 61% 29.86 in 10.0 mi West 18.4 mph 27.6 mph N/A   Overcast
3:15 PM 50.9 °F - 38.5 °F 62% 29.87 in 10.0 mi West 25.3 mph 32.2 mph N/A   Overcast
3:35 PM 50.2 °F - 38.3 °F 64% 29.87 in 10.0 mi West 24.2 mph 33.4 mph N/A   Overcast
3:55 PM 50.9 °F - 39.2 °F 64% 29.87 in 10.0 mi West 20.7 mph 26.5 mph N/A   Overcast
4:15 PM 50.5 °F - 39.2 °F 65% 29.88 in 10.0 mi West 20.7 mph 32.2 mph N/A   Overcast
4:35 PM 50.0 °F - 39.4 °F 67% 29.88 in 10.0 mi West 23.0 mph 31.1 mph N/A   Overcast
4:55 PM 49.6 °F - 39.7 °F 69% 29.88 in 10.0 mi West 23.0 mph 31.1 mph N/A   Overcast
5:15 PM 49.5 °F - 40.3 °F 71% 29.89 in 10.0 mi West 23.0 mph 32.2 mph N/A   Overcast
5:35 PM 49.1 °F - 40.5 °F 72% 29.89 in 10.0 mi West 18.4 mph 26.5 mph N/A   Overcast
5:55 PM 49.1 °F - 40.8 °F 73% 29.89 in 10.0 mi West 15.0 mph 25.3 mph N/A   Overcast
6:15 PM 48.6 °F - 41.2 °F 76% 29.89 in 10.0 mi West 16.1 mph 31.1 mph N/A   Overcast
6:35 PM 48.2 °F - 41.5 °F 78% 29.90 in 10.0 mi West 17.3 mph 25.3 mph N/A   Overcast
6:55 PM 48.2 °F - 41.9 °F 79% 29.90 in 10.0 mi West 17.3 mph 24.2 mph N/A   Overcast
7:15 PM 48.2 °F - 41.9 °F 79% 29.91 in 10.0 mi West 18.4 mph 24.2 mph N/A   Overcast
7:55 PM 47.5 °F - 41.9 °F 81% 29.93 in 10.0 mi West 17.3 mph 23.0 mph N/A   Overcast
8:15 PM 47.5 °F - 42.1 °F 82% 29.93 in 10.0 mi West 15.0 mph 23.0 mph N/A   Overcast
8:35 PM 46.9 °F - 42.4 °F 84% 29.94 in 10.0 mi West 15.0 mph 24.2 mph N/A   Overcast
8:55 PM 47.1 °F - 42.6 °F 84% 29.94 in 10.0 mi West 15.0 mph - N/A   Overcast
9:15 PM 46.9 °F - 42.6 °F 85% 29.94 in 10.0 mi West 13.8 mph 21.9 mph N/A   Overcast
9:35 PM 46.4 °F 40.7 °F 42.8 °F 87% 29.94 in 10.0 mi West 12.7 mph 18.4 mph N/A   Overcast
9:55 PM 46.6 °F - 42.6 °F 86% 29.95 in 10.0 mi West 11.5 mph 19.6 mph N/A   Overcast
10:15 PM 46.8 °F - 42.3 °F 84% 29.95 in 10.0 mi West 12.7 mph 18.4 mph N/A   Overcast
10:35 PM 46.9 °F - 41.5 °F 81% 29.96 in 10.0 mi WNW 13.8 mph 19.6 mph N/A   Overcast
10:55 PM 47.3 °F - 40.5 °F 77% 29.96 in 10.0 mi WNW 11.5 mph 18.4 mph N/A   Overcast
11:15 PM 47.3 °F - 40.1 °F 76% 29.96 in 10.0 mi WNW 10.4 mph 16.1 mph N/A   Overcast
11:35 PM 46.9 °F - 41.0 °F 80% 29.95 in 10.0 mi West 13.8 mph 17.3 mph N/A   Overcast
11:55 PM 46.9 °F - 40.1 °F 77% 29.96 in 10.0 mi WNW 10.4 mph 18.4 mph N/A   Overcast